RH
82 84 88 91 92 91 93 93 95 94 95 98 97 92 78 79 83 85 86 88 88 88 88 87 87 88 88 88 78 78 81 82 67 70 83 84 79 76 78 70 50 70 85
80 88 86 90 90 97 97 93 90 96 95 88 92 86 84 85 88 89 88 88 88 88 88 88 87 88 88 81 80 81 78 64 55 65 67 60 54 85 92 90 75 71 72
82 84 88 90 89 94 89 94 95 99 94 92 88 85 86 88 89 89 88 88 88 89 88 88 88 88 84 82 82 76 72 46 42 40 42 57 91 88 96 96 94 91 84
76 72 85 90 94 84 90 99 99 95 94 90 88 86 89 89 88 88 88 89 87 85 86 89 89 86 83 84 79 75 63 53 47 79 80 85 87 86 89 92 92 95 96
75 68 92 94 89 83 89 100 98 95 91 89 88 89 90 89 89 89 87 81 79 78 80 87 89 87 85 85 77 75 66 88 79 72 69 72 73 72 81 87 86 87 96
74 92 97 92 86 87 95 100 97 94 89 90 89 90 89 88 89 84 82 81 79 72 73 81 86 87 87 84 79 69 68 82 75 66 76 74 71 78 84 81 76 79 85
95 99 95 88 83 89 99 98 95 90 88 89 90 88 89 88 85 80 78 76 72 69 70 75 83 85 84 80 73 56 57 74 77 74 68 66 73 69 71 82 91 75 81
94 100 94 87 84 95 99 96 90 89 89 91 88 87 88 85 79 74 74 72 70 67 67 74 80 78 76 67 59 58 57 64 78 70 71 73 74 75 79 94 80 90 89
100 100 95 86 88 97 94 88 90 88 90 91 86 87 86 77 73 72 71 70 71 67 63 68 70 74 62 57 58 58 55 76 74 73 69 72 76 75 76 83 86 78 81
99 100 93 87 96 93 89 83 87 87 89 86 84 81 68 69 72 70 63 69 71 66 65 67 70 61 52 56 56 55 55 80 83 72 72 74 75 87 72 82 80 77 71
99 100 93 92 94 83 80 84 86 82 86 73 44 37 38 40 40 40 39 42 59 60 50 45 40 45 51 57 58 59 66 88 82 74 74 76 75 75 74 75 74 76 77
98 100 99 95 86 76 80 84 78 69 53 33 30 36 37 38 38 38 37 37 36 40 42 41 44 48 52 55 61 60 59 66 72 70 76 76 75 76 77 78 78 77 75
99 100 100 93 82 74 74 78 65 49 32 29 38 38 38 39 39 39 37 37 37 38 44 45 47 50 52 56 62 62 69 61 58 60 75 77 77 77 78 80 80 80 80
99 100 92 89 78 68 72 68 45 33 33 34 39 40 38 39 40 39 37 38 38 38 41 46 48 52 53 56 61 67 70 64 62 66 71 80 84 80 79 78 78 78 78
95 99 87 88 74 61 61 54 33 38 38 38 40 42 39 39 38 39 39 38 38 39 38 41 48 51 56 60 64 69 71 65 63 64 70 73 78 86 78 72 72 73 74
95 97 88 87 70 56 45 37 32 40 40 38 40 41 40 38 36 39 40 38 37 39 40 37 39 49 53 61 63 69 73 68 66 66 67 69 66 71 76 72 73 72 74
94 94 90 84 64 46 37 29 36 40 38 38 40 42 42 40 36 38 39 40 39 37 36 36 32 30 46 56 62 64 70 68 67 65 58 68 63 63 71 78 78 77 78
98 90 87 82 60 40 31 28 38 40 37 38 41 42 43 42 37 40 39 39 39 35 34 37 32 32 40 44 55 65 66 66 64 59 56 66 66 65 62 54 56 58 75
90 96 90 81 56 38 33 37 39 37 38 41 42 42 44 43 39 38 42 40 38 34 35 34 32 30 35 46 50 58 67 66 66 63 56 55 62 59 52 48 47 48 42
100 85 99 76 56 37 41 43 40 40 43 44 43 41 42 45 43 44 46 41 37 29 33 32 30 33 42 45 49 61 57 47 62 59 54 53 48 43 50 43 39 40 43
96 99 99 90 60 36 47 44 45 47 47 47 45 44 46 49 47 45 47 43 38 30 32 35 36 38 48 51 52 64 59 58 57 57 56 51 43 42 43 41 44 49 52
99 98 100 95 78 62 46 42 43 44 48 46 46 47 50 51 49 49 48 46 35 29 33 34 33 42 50 43 43 48 61 56 58 61 58 53 46 43 46 45 48 52 54
100 100 94 88 86 71 64 50 44 47 50 53 52 50 55 55 52 49 46 41 33 31 30 30 30 35 49 55 43 42 63 56 75 61 63 58 47 42 46 42 49 51 49
100 100 100 97 90 78 73 64 58 52 61 54 54 54 60 60 56 50 46 40 33 32 32 32 32 30 36 49 51 58 56 60 75 59 64 60 48 44 49 38 49 47 49
100 100 97 89 87 82 70 66 68 65 58 54 58 63 63 63 59 52 45 38 35 36 36 36 39 37 36 39 46 57 61 69 61 75 80 66 48 43 30 61 54 38 64
100 100 100 100 99 85 85 77 69 72 71 60 67 66 65 63 58 51 44 41 40 40 40 40 40 40 42 44 47 50 54 61 68 67 82 80 76 58 31 35 51 37 58
Wind_Speed
27 32 29 25 24 25 22 20 19 18 18 18 16 13 11 11 11 11 11 11 11 10 10 10 10 9 9 9 10 11 12 12 12 12 11 11 11 11 10 9 8 9 10
34 34 31 28 26 24 22 20 19 20 21 16 15 14 13 13 12 11 11 11 10 10 10 10 10 9 9 11 12 12 13 13 13 12 10 10 13 14 13 12 11 10 11
39 36 33 30 27 25 24 19 22 21 19 17 16 15 14 13 12 12 11 11 10 10 10 10 10 10 11 13 13 14 14 13 12 12 12 15 15 14 18 15 15 15 13
42 38 36 30 30 26 23 23 21 19 18 17 16 16 15 14 13 12 11 11 10 10 10 11 11 12 13 14 14 15 15 15 18 19 18 17 18 15 14 16 18 18 17
39 39 36 32 30 29 25 22 21 19 18 17 17 17 16 14 14 13 12 12 11 11 11 11 12 14 15 14 15 15 17 19 19 16 17 16 16 13 12 14 15 15 17
39 39 35 33 31 28 25 23 21 20 19 18 18 17 16 15 14 14 13 12 12 12 12 12 14 15 15 15 16 16 17 18 17 17 19 17 15 16 16 15 14 12 12
36 37 37 33 29 27 25 23 22 20 19 18 18 18 17 16 15 14 13 13 14 13 13 14 15 15 15 15 16 17 16 17 18 19 17 17 15 14 13 13 13 14 14
31 36 36 32 29 26 25 23 22 21 20 19 18 18 17 17 16 15 16 15 14 13 13 14 15 14 13 15 16 16 16 16 19 18 18 17 15 14 14 14 15 15 16
30 34 34 31 28 26 26 25 23 22 21 20 19 18 18 18 18 17 16 15 14 14 13 14 14 14 14 16 17 16 15 17 18 18 16 16 14 15 13 14 17 16 16
31 32 34 31 29 28 26 24 24 24 22 21 20 20 21 21 19 17 17 15 14 15 15 15 14 14 15 17 16 16 16 17 18 16 15 17 15 15 14 15 15 15 14
28 33 34 33 30 29 27 25 25 24 23 22 21 21 22 20 19 17 16 17 17 16 15 16 14 15 16 16 15 15 16 18 17 15 16 16 15 14 14 14 14 14 14
29 30 35 32 32 30 29 28 26 26 24 23 23 22 21 19 18 18 17 17 16 17 16 16 15 16 15 15 16 15 16 14 12 13 16 14 14 14 13 13 13 14 14
28 31 34 32 31 31 31 29 27 26 27 25 23 22 21 19 19 18 18 17 16 15 16 16 16 16 16 15 15 15 15 15 15 15 15 13 13 13 14 13 13 14 14
30 29 34 33 31 29 29 29 28 29 29 26 23 21 19 19 18 18 18 17 16 15 15 15 15 15 15 14 14 14 15 14 14 15 14 13 12 12 13 13 13 13 13
28 28 36 34 32 30 29 28 29 30 28 25 23 20 19 19 18 18 18 16 15 15 14 15 15 14 13 14 14 13 13 13 13 13 11 11 11 11 12 13 13 13 14
28 29 38 35 32 29 30 29 30 29 27 24 22 20 19 18 17 18 17 16 15 14 13 14 13 13 13 12 13 12 12 11 10 10 9 10 11 11 12 13 12 12 13
32 31 36 35 32 30 30 30 30 28 27 25 23 21 19 17 17 18 17 16 15 14 13 13 13 11 13 13 13 12 12 10 9 9 9 10 11 12 11 13 14 12 13
28 37 39 37 34 31 32 32 30 26 26 25 23 22 19 18 17 18 17 16 15 14 13 14 12 12 14 12 13 12 11 10 11 10 10 10 9 10 12 14 12 12 13
7 17 30 40 38 34 32 30 27 26 25 25 24 22 21 19 18 18 17 16 14 14 13 13 13 12 13 13 12 13 11 10 9 9 10 10 10 11 12 14 14 13 15
31 15 20 27 40 35 32 27 26 26 25 24 23 22 22 21 19 18 17 16 14 14 16 15 15 15 16 15 15 14 12 8 10 11 13 14 13 13 13 15 16 17 15
23 22 17 7 27 41 35 31 28 29 27 25 23 21 21 21 19 18 18 16 14 13 15 14 16 17 17 18 15 14 11 13 14 16 14 13 14 15 13 16 16 17 17
31 32 25 22 6 19 37 35 33 31 28 26 23 21 20 19 18 18 17 16 14 13 13 12 12 18 17 8 5 6 2 3 7 9 9 10 14 15 13 18 15 15 15
30 34 36 30 15 5 8 30 30 28 25 24 23 22 21 20 18 17 17 16 15 13 14 14 12 11 12 14 10 6 3 3 1 3 3 2 12 16 12 17 13 13 15
27 32 38 40 44 19 2 11 24 33 23 27 30 24 21 19 19 17 17 16 16 15 14 13 13 13 13 15 11 13 9 5 2 1 3 2 13 16 13 17 13 13 14
27 33 36 37 39 32 23 12 11 11 23 27 26 23 22 20 18 17 17 17 16 15 15 14 13 14 13 14 9 6 10 11 8 3 2 5 15 15 17 7 10 16 13
25 26 31 32 39 44 41 28 17 11 18 30 27 25 22 21 19 18 17 17 16 15 15 17 15 14 14 15 13 11 9 5 3 4 1 2 5 5 13 11 7 15 12
Wind_Direction
177 168 167 163 161 152 157 150 145 140 137 132 126 118 114 108 102 97 92 89 86 85 82 82 82 80 76 72 72 76 76 78 89 95 95 85 64 49 34 30 35 47 41
166 166 163 161 160 160 153 150 150 147 142 150 125 116 112 108 105 100 97 94 93 91 88 88 87 85 81 80 82 79 87 86 87 86 80 71 59 53 44 49 50 50 44
162 165 160 161 162 157 153 156 149 144 147 135 127 121 116 112 109 106 103 100 98 97 94 93 91 89 88 91 86 87 90 84 83 80 78 79 75 58 49 60 61 59 54
161 162 158 164 162 155 152 146 149 147 136 132 127 122 119 117 115 111 109 107 104 101 100 100 99 96 97 94 90 93 85 82 90 88 81 76 65 59 49 49 53 53 55
160 160 158 168 160 155 158 149 150 142 138 134 129 126 124 121 119 118 115 111 107 104 103 104 103 101 102 97 97 98 93 93 92 85 72 62 60 54 53 49 47 45 49
160 159 165 164 159 157 157 150 148 142 141 137 133 130 128 125 123 120 116 112 107 104 105 106 105 104 102 98 102 100 98 100 97 90 81 76 69 61 63 58 51 48 44
160 162 166 164 159 162 153 153 147 145 142 140 136 133 130 128 125 120 115 110 107 105 104 106 109 106 101 101 105 102 97 101 93 87 81 73 67 61 60 54 67 57 54
164 166 163 161 164 161 155 152 150 146 144 140 139 135 133 130 126 120 115 112 107 103 104 108 108 105 101 107 109 100 97 101 98 83 79 75 64 64 67 53 64 66 60
163 161 162 162 167 163 159 155 151 147 146 143 141 138 135 130 126 122 119 114 109 103 104 111 109 105 104 110 109 103 100 103 100 89 78 70 63 64 65 60 59 55 55
164 165 165 165 165 162 161 159 154 152 149 147 145 146 140 133 133 129 126 116 111 108 107 112 110 112 110 116 108 101 104 105 102 95 90 72 69 67 68 58 54 54 47
168 169 170 170 170 166 163 161 159 156 154 153 145 141 141 136 133 131 124 121 117 116 113 119 118 120 119 121 110 103 110 105 101 92 80 80 74 71 64 62 58 55 50
170 171 174 175 171 167 166 166 165 160 157 153 148 144 141 138 136 134 130 128 122 121 118 121 119 120 125 126 120 109 107 106 103 90 88 84 77 71 65 62 57 51 45
167 171 177 179 173 171 171 169 166 162 155 153 150 148 146 145 141 141 135 133 128 126 123 123 123 122 123 127 124 116 109 102 98 95 94 86 77 68 62 58 55 50 45
170 171 181 182 176 177 173 172 167 164 159 159 158 157 152 151 149 146 140 138 136 130 128 124 123 121 122 124 128 122 114 106 98 94 91 87 77 67 60 52 48 45 38
172 177 181 184 180 177 176 176 171 167 164 163 161 162 160 156 153 149 144 139 136 130 130 126 124 125 122 125 127 125 119 110 103 94 93 83 73 67 58 49 46 41 35
176 180 183 185 183 180 178 179 175 171 167 168 166 166 161 160 156 152 145 141 135 135 131 128 128 130 130 130 123 130 128 117 105 94 86 84 67 69 57 45 39 38 32
180 182 186 185 184 183 183 181 176 175 172 172 169 167 164 164 160 155 149 144 138 135 134 132 124 127 142 135 129 124 131 121 110 94 76 87 75 67 53 39 37 36 29
179 186 189 187 186 185 186 182 178 181 176 174 172 167 169 166 164 159 154 149 145 140 140 135 126 122 137 135 133 131 128 122 113 95 86 89 75 59 48 35 31 27 24
225 197 190 190 187 186 186 183 182 181 179 175 174 172 170 171 168 166 161 151 146 142 140 138 122 125 131 135 131 128 125 123 120 107 94 83 76 62 44 34 32 22 16
208 203 222 192 186 184 185 183 180 177 176 177 177 175 173 173 169 167 161 156 153 149 142 134 117 119 121 122 125 118 105 98 127 110 97 90 73 55 44 34 27 25 21
187 194 177 227 190 181 178 178 179 179 177 177 178 177 176 175 170 170 165 158 154 152 140 134 116 104 120 124 119 112 103 87 107 111 100 84 65 48 39 32 32 33 35
172 180 164 162 231 183 182 183 181 182 179 177 176 179 179 177 173 170 167 158 152 146 144 145 129 105 83 140 130 121 102 115 113 113 100 68 46 32 34 27 27 27 27
167 168 169 174 186 255 200 185 179 179 174 174 176 178 180 178 174 171 166 161 152 148 139 136 131 134 120 76 97 140 126 186 140 180 205 48 20 14 20 12 19 16 10
171 171 168 175 175 207 250 187 187 174 171 181 179 178 176 175 174 172 168 163 154 148 137 129 126 122 132 124 85 80 90 113 141 28 198 264 357 359 2 1 14 8 3
165 172 182 182 181 184 217 221 215 214 181 179 174 170 168 169 174 167 164 160 154 147 134 125 115 113 109 105 114 118 85 86 72 98 281 324 335 350 350 28 13 0 0
180 174 167 171 175 176 186 191 197 215 192 172 169 167 165 164 163 162 160 156 149 142 135 124 114 106 101 101 96 88 88 91 70 56 31 309 298 330 343 346 348 346 350